Погода в Болтутине

Россия / Смоленская область     54°31′36″N   32°49′06″E
темп.,
°C
ветер,
м/с
пор.,
м/с
влажн.,
%
обл.,
%
осадки,
мм/ч
давл.,
гПа
погр.,
м
15 мая, сб
сб1500:00+11в369829 0.2 1007126
03:00+11ююв359715 0.2 100680
06:00+11ююз389525 0.0 1006191
09:00+15ююз46821 0.0 1007542
12:00+18ююз56675 1.1 10071284
15:00+18ююз45635 2.1 10061273
18:00+17ююз467720 1.6 1007841
21:00+12ююз369334 2.5 100797
16 мая, вс
вс1600:00+11ююз49968 0.0 1008202
03:00+10ю499798 0.0 1009200
06:00+11ю4109735 0.0 1010284
09:00+14юз578777 0.0 1011544
12:00+18юз566945 0.1 10121267
15:00+20юз456191 0.2 10121512
18:00+18ююз34734 0.3 1012550
21:00+14ююв2288100 0.4 101319
17 мая, пн
пн1700:00+12юв229090 0.0 101324
03:00+11вюв359238 0.0 101381
06:00+12вюв3893100 0.0 1012173
09:00+17вюв477599 0.0 1011401
12:00+21в6863100 0.0 10091068
15:00+24вюв6116053 0.0 10061663
18:00+23юв6116399 0.0 1004735
21:00+17вюв498445 0.1 1004179
18 мая, вт
вт1800:00+16юв51189100 0.1 1003272
03:00+15вюв4996100 0.1 1002211
06:00+15юв51197100 2.4 1001367
09:00+17юв51193100 3.4 1001622
12:00+20ююв81272100 0.1 10011476
15:00+18ююв71182100 0.8 10001002
18:00+15ююв5119499 3.1 1000601
21:00+14ююз6109660 3.6 1001443
19 мая, ср
ср1900:00+12ю349799 0.0 100272
03:00+13вюв1297100 1.5 100136
06:00+12св2398100 2.3 1000140
09:00+13з3497100 4.4 1000336
12:00+11зсз61097100 3.3 1001509
15:00+10з71295100 8.6 1002615
18:00+10з71292100 1.6 1002810
21:00+10зюз51291100 1.7 1004713